Location: ????????
(60.5616°N, 46.8254°E)
Time: 09:30:58
(UTC+00:00)

Okean 1-7 - Pass Details

Date: 18 February 2020
Orbit: 592 x 617 km, 82.5° (Epoch: 03 April)

Event Time Altitude Azimuth Distance (km) Brightness Sun altitude
Rises 15:05:04 0° 348° (NNW) 2,852 6.5 -10.0°
Reaches altitude 10° 15:07:44 10° 5° (N) 1,948 5.5 -10.3°
Maximum altitude 15:11:02 21° 55° (NE) 1,365 4.3 -10.7°
Enters shadow 15:13:07 15° 92° (E) 1,621 4.5 -10.9°
